Location: Zapote
(9.9191°N, 84.0597°W)
Time: 04:37:30
(UTC-06:00)

N. Korean satellite - Pass Details

Date: 02 February 2021
Orbit: 451 x 503 km, 97.2° (Epoch: 27 February)

Event Time Altitude Azimuth Distance (km) Brightness Sun altitude
Rises 04:43:27 0° 11° (N) 2,445 10.1 -18.6°
Reaches altitude 10° 04:45:28 10° 11° (N) 1,575 9.1 -18.2°
Maximum altitude 04:48:50 90° 269° (W) 455 6.3 -17.3°
Drops below altitude 10° 04:52:14 10° 191° (S) 1,588 9.2 -16.5°
Sets 04:54:17 0° 191° (S) 2,468 10.2 -16.1°
